| time (UTC) | temp F | wind direction | speed MPH | gust MPH | rain 1hr in | rain 24hr in | rain mn in | humidity % | barometer mb |
| 20260503214017 | 42 | 68 | 0.0 | 0.0 | 0.00 | 0.01 | 0.00 | 98 | |
| 20260503213517 | 42 | 68 | 0.0 | 0.0 | 0.00 | 0.01 | 0.00 | 98 | |
| 20260503213017 | 42 | 68 | 0.0 | 0.0 | 0.00 | 0.01 | 0.00 | 98 | |
| 20260503212517 | 42 | 68 | 0.0 | 0.0 | 0.00 | 0.01 | 0.00 | 97 | |
| 20260503212017 | 42 | 68 | 0.0 | 0.0 | 0.00 | 0.01 | 0.00 | 97 | |
| 20260503211517 | 43 | 68 | 0.0 | 0.0 | 0.00 | 0.01 | 0.00 | 97 | |
| 20260503211017 | 43 | 68 | 0.0 | 0.0 | 0.00 | 0.01 | 0.00 | 96 | |
| 20260503210517 | 43 | 68 | 0.0 | 0.0 | 0.00 | 0.01 | 0.00 | 96 | |
| 20260503210017 | 43 | 68 | 0.0 | 0.0 | 0.00 | 0.01 | 0.00 | 96 | |
| 20260503205517 | 44 | 68 | 0.0 | 0.0 | 0.00 | 0.01 | 0.00 | 96 | |
| 20260503205017 | 44 | 68 | 0.0 | 0.0 | 0.00 | 0.01 | 0.00 | 96 | |
| 20260503204517 | 44 | 68 | 0.0 | 0.0 | 0.00 | 0.01 | 0.00 | 96 | |
| 20260503204017 | 44 | 68 | 0.0 | 0.0 | 0.00 | 0.01 | 0.00 | 95 | |
| 20260503203517 | 44 | 68 | 0.0 | 0.0 | 0.00 | 0.01 | 0.00 | 94 | |
| 20260503203017 | 45 | 68 | 0.0 | 0.0 | 0.00 | 0.01 | 0.00 | 95 | |
| 20260503202517 | 45 | 68 | 0.0 | 0.0 | 0.00 | 0.01 | 0.00 | 93 | |
| 20260503202017 | 45 | 68 | 0.0 | 0.0 | 0.00 | 0.01 | 0.00 | 92 | |
| 20260503201517 | 45 | 68 | 0.0 | 0.0 | 0.00 | 0.01 | 0.00 | 92 | |
| 20260503201017 | 46 | 68 | 0.0 | 0.0 | 0.00 | 0.01 | 0.00 | 91 | |
| 20260503200517 | 46 | 68 | 0.0 | 0.0 | 0.00 | 0.01 | 0.00 | 93 | |
| 20260503200017 | 46 | 68 | 0.0 | 0.0 | 0.00 | 0.01 | 0.00 | 91 | |
| 20260503195517 | 46 | 68 | 0.0 | 0.0 | 0.00 | 0.01 | 0.00 | 87 | |
| 20260503195017 | 47 | 68 | 0.0 | 0.0 | 0.00 | 0.01 | 0.00 | 87 | |
| 20260503194517 | 47 | 68 | 0.0 | 0.0 | 0.00 | 0.01 | 0.00 | 89 | |
| 20260503194017 | 47 | 68 | 0.0 | 0.0 | 0.00 | 0.01 | 0.00 | 86 | |
| 20260503193517 | 47 | 68 | 0.0 | 0.0 | 0.00 | 0.01 | 0.00 | 83 | |
| 20260503193017 | 48 | 68 | 0.0 | 0.0 | 0.00 | 0.01 | 0.00 | 83 | |
| 20260503192517 | 48 | 68 | 0.0 | 0.0 | 0.00 | 0.01 | 0.00 | 82 | |
| 20260503192017 | 49 | 68 | 0.0 | 0.0 | 0.00 | 0.01 | 0.00 | 82 | |
| 20260503191517 | 49 | 68 | 0.0 | 0.0 | 0.00 | 0.01 | 0.00 | 81 | |
| 20260503191017 | 49 | 68 | 0.0 | 0.0 | 0.00 | 0.01 | 0.00 | 81 | |
| 20260503190517 | 50 | 68 | 0.0 | 0.0 | 0.00 | 0.01 | 0.01 | 80 | |
| 20260503190017 | 50 | 68 | 0.0 | 0.0 | 0.00 | 0.01 | 0.01 | 78 | |
| 20260503185517 | 50 | 68 | 0.0 | 0.0 | 0.00 | 0.01 | 0.01 | 75 | |
| 20260503185017 | 51 | 68 | 0.0 | 0.0 | 0.00 | 0.01 | 0.01 | 74 | |
| 20260503184517 | 51 | 68 | 0.0 | 0.0 | 0.00 | 0.01 | 0.01 | 74 | |
| 20260503184017 | 52 | 68 | 0.0 | 0.0 | 0.00 | 0.01 | 0.01 | 69 | |
| 20260503183517 | 52 | 68 | 0.0 | 0.0 | 0.00 | 0.01 | 0.01 | 68 | |
| 20260503183017 | 53 | 68 | 0.0 | 0.0 | 0.00 | 0.01 | 0.01 | 66 | |
| 20260503182517 | 53 | 68 | 0.0 | 0.0 | 0.00 | 0.01 | 0.01 | 65 | |
| 20260503182017 | 54 | 68 | 0.0 | 0.0 | 0.00 | 0.01 | 0.01 | 63 | |
| 20260503181517 | 55 | 68 | 0.0 | 0.0 | 0.00 | 0.01 | 0.01 | 61 | |
| 20260503181017 | 56 | 68 | 0.0 | 0.0 | 0.00 | 0.01 | 0.01 | 59 | |
| 20260503180517 | 56 | 68 | 0.0 | 0.0 | 0.00 | 0.01 | 0.01 | 58 | |
| 20260503180017 | 57 | 68 | 0.0 | 0.0 | 0.00 | 0.01 | 0.01 | 59 | |
| 20260503175517 | 58 | 68 | 0.0 | 0.0 | 0.00 | 0.01 | 0.01 | 57 | |
| 20260503175018 | 59 | 68 | 0.0 | 0.0 | 0.00 | 0.01 | 0.01 | 55 | |
| 20260503174517 | 60 | 68 | 0.0 | 0.0 | 0.00 | 0.01 | 0.01 | 51 | |
| 20260503174017 | 61 | 68 | 0.0 | 0.0 | 0.00 | 0.01 | 0.01 | 50 | |
| 20260503173517 | 62 | 68 | 0.0 | 0.0 | 0.00 | 0.01 | 0.01 | 46 | |
| 20260503173017 | 63 | 68 | 0.0 | 0.0 | 0.00 | 0.01 | 0.01 | 44 | |
| 20260503172517 | 64 | 68 | 0.0 | 0.0 | 0.00 | 0.01 | 0.01 | 43 | |
| 20260503172017 | 66 | 68 | 0.0 | 0.0 | 0.00 | 0.01 | 0.01 | 40 | |
| 20260503171517 | 68 | 68 | 0.0 | 0.0 | 0.00 | 0.01 | 0.01 | 38 | |
| 20260503171017 | 68 | 68 | 0.0 | 0.0 | 0.00 | 0.01 | 0.01 | 38 | |
| 20260503170517 | 69 | 68 | 0.0 | 0.0 | 0.00 | 0.01 | 0.01 | 36 | |
| 20260503150518 | 72 | 68 | 0.0 | 0.0 | 0.00 | 0.01 | 0.01 | 26 | |
| 20260503131018 | 72 | 68 | 0.0 | 0.0 | 0.01 | 0.01 | 0.01 | 27 | |
| 20260503130518 | 73 | 68 | 0.0 | 0.0 | 0.01 | 0.01 | 0.01 | 27 | |
| 20260503110518 | 70 | 68 | 0.0 | 0.0 | 0.00 | 0.00 | 0.00 | 33 | |
| 20260503081019 | 64 | 68 | 0.0 | 0.0 | 0.00 | 0.00 | 0.00 | 40 | |
| 20260503072519 | 60 | 68 | 0.0 | 0.0 | 0.00 | 0.00 | 0.00 | 44 | |
| 20260503072019 | 60 | 68 | 0.0 | 0.0 | 0.00 | 0.00 | 0.00 | 44 | |
| 20260503071519 | 60 | 68 | 0.0 | 0.0 | 0.00 | 0.00 | 0.00 | 45 | |
| 20260503071019 | 59 | 68 | 0.0 | 0.0 | 0.00 | 0.00 | 0.00 | 45 | |
| 20260503070520 | 59 | 68 | 0.0 | 0.0 | 0.00 | 0.00 | 0.00 | 49 | |
| 20260503055019 | 46 | 68 | 0.0 | 0.0 | 0.00 | 0.00 | 0.00 | 100 | |
| 20260503054519 | 45 | 68 | 0.0 | 0.0 | 0.00 | 0.00 | 0.00 | 100 | |
| 20260503054019 | 45 | 68 | 0.0 | 0.0 | 0.00 | 0.00 | 0.00 | 100 | |
| 20260503053519 | 44 | 68 | 0.0 | 0.0 | 0.00 | 0.00 | 0.00 | 100 | |
| 20260503053020 | 44 | 68 | 0.0 | 0.0 | 0.00 | 0.00 | 0.00 | 100 | |
| 20260503052519 | 43 | 68 | 0.0 | 0.0 | 0.00 | 0.00 | 0.00 | 100 | |
| 20260503052019 | 42 | 68 | 0.0 | 0.0 | 0.00 | 0.00 | 0.00 | 100 | |
| 20260503051519 | 42 | 68 | 0.0 | 0.0 | 0.00 | 0.00 | 0.00 | 100 | |
| 20260503051019 | 41 | 68 | 0.0 | 0.0 | 0.00 | 0.00 | 0.00 | 100 | |
| 20260503050519 | 40 | 68 | 0.0 | 0.0 | 0.00 | 0.00 | 0.00 | 100 | |
| 20260503050019 | 39 | 68 | 0.0 | 0.0 | 0.00 | 0.00 | 0.00 | 100 | |
| 20260503045519 | 39 | 68 | 0.0 | 0.0 | 0.00 | 0.00 | 0.00 | 100 | |
| 20260503045020 | 38 | 68 | 0.0 | 0.0 | 0.00 | 0.00 | 0.00 | 100 | |
| 20260503044519 | 37 | 68 | 0.0 | 0.0 | 0.00 | 0.00 | 0.00 | 100 | |
| 20260503044020 | 37 | 68 | 0.0 | 0.0 | 0.00 | 0.00 | 0.00 | 100 | |
| 20260503043520 | 36 | 68 | 0.0 | 0.0 | 0.00 | 0.00 | 0.00 | 100 | |
| 20260503043020 | 35 | 68 | 0.0 | 0.0 | 0.00 | 0.00 | 0.00 | 100 | |
| 20260503042520 | 35 | 68 | 0.0 | 0.0 | 0.00 | 0.00 | 0.00 | 100 | |
| 20260503042020 | 34 | 68 | 0.0 | 0.0 | 0.00 | 0.00 | 0.00 | 100 | |
| 20260503041520 | 34 | 68 | 0.0 | 0.0 | 0.00 | 0.00 | 0.00 | 100 | |
| 20260503041020 | 34 | 68 | 0.0 | 0.0 | 0.00 | 0.00 | 0.00 | 100 | |
| 20260503040520 | 34 | 68 | 0.0 | 0.0 | 0.00 | 0.00 | 0.00 | 100 | |
| 20260503040020 | 34 | 68 | 0.0 | 0.0 | 0.00 | 0.00 | 0.00 | 100 | |
| 20260503035520 | 33 | 68 | 0.0 | 0.0 | 0.00 | 0.00 | 0.00 | 100 | |
| 20260503035020 | 33 | 68 | 0.0 | 0.0 | 0.00 | 0.00 | 0.00 | 100 | |
| 20260503034520 | 33 | 68 | 0.0 | 0.0 | 0.00 | 0.00 | 0.00 | 100 | |
| 20260503034020 | 34 | 68 | 0.0 | 0.0 | 0.00 | 0.00 | 0.00 | 100 | |
| 20260503033520 | 33 | 68 | 0.0 | 0.0 | 0.00 | 0.00 | 0.00 | 100 | |
| 20260503033020 | 33 | 68 | 0.0 | 0.0 | 0.00 | 0.00 | 0.00 | 100 | |
| 20260503032520 | 33 | 68 | 0.0 | 0.0 | 0.00 | 0.00 | 0.00 | 100 | |
| 20260503032020 | 33 | 68 | 0.0 | 0.0 | 0.00 | 0.00 | 0.00 | 100 | |
| 20260503031520 | 33 | 68 | 0.0 | 0.0 | 0.00 | 0.00 | 0.00 | 100 | |
| 20260503031020 | 33 | 68 | 0.0 | 0.0 | 0.00 | 0.00 | 0.00 | 100 | |
| 20260503030520 | 34 | 68 | 0.0 | 0.0 | 0.00 | 0.00 | 0.00 | 100 | |
| 20260503030022 | 34 | 68 | 0.0 | 0.0 | 0.00 | 0.00 | 0.00 | 100 | |
| 20260503025520 | 34 | 68 | 0.0 | 0.0 | 0.00 | 0.00 | 0.00 | 100 | |
| 20260503025020 | 34 | 68 | 0.0 | 0.0 | 0.00 | 0.00 | 0.00 | 100 | |
| 20260503024520 | 34 | 68 | 0.0 | 0.0 | 0.00 | 0.00 | 0.00 | 100 | |
| 20260503024020 | 34 | 68 | 0.0 | 0.0 | 0.00 | 0.00 | 0.00 | 100 | |
| 20260503023520 | 34 | 68 | 0.0 | 0.0 | 0.00 | 0.00 | 0.00 | 100 | |
| 20260503023020 | 34 | 68 | 0.0 | 0.0 | 0.00 | 0.00 | 0.00 | 100 | |
| 20260503022520 | 34 | 68 | 0.0 | 0.0 | 0.00 | 0.00 | 0.00 | 100 | |
| 20260503022020 | 34 | 68 | 0.0 | 0.0 | 0.00 | 0.00 | 0.00 | 100 | |
| 20260503021520 | 34 | 68 | 0.0 | 0.0 | 0.00 | 0.00 | 0.00 | 100 | |
| 20260503021020 | 34 | 68 | 0.0 | 0.0 | 0.00 | 0.00 | 0.00 | 100 | |
| 20260503020520 | 34 | 68 | 0.0 | 0.0 | 0.00 | 0.00 | 0.00 | 100 | |
| 20260503020020 | 34 | 68 | 0.0 | 0.0 | 0.00 | 0.00 | 0.00 | 100 | |
| 20260503015520 | 35 | 68 | 0.0 | 0.0 | 0.00 | 0.00 | 0.00 | 100 | |
| 20260503015020 | 34 | 68 | 0.0 | 0.0 | 0.00 | 0.00 | 0.00 | 100 | |
| 20260503014520 | 34 | 68 | 0.0 | 0.0 | 0.00 | 0.00 | 0.00 | 100 | |
| 20260503014020 | 34 | 68 | 0.0 | 0.0 | 0.00 | 0.00 | 0.00 | 100 | |
| 20260503013520 | 34 | 68 | 0.0 | 0.0 | 0.00 | 0.00 | 0.00 | 100 | |
| 20260503013020 | 34 | 68 | 0.0 | 0.0 | 0.00 | 0.00 | 0.00 | 100 | |
| 20260503012520 | 34 | 68 | 0.0 | 0.0 | 0.00 | 0.00 | 0.00 | 100 | |
| 20260503012020 | 34 | 68 | 0.0 | 0.0 | 0.00 | 0.00 | 0.00 | 100 | |
| 20260503011520 | 35 | 68 | 0.0 | 0.0 | 0.00 | 0.00 | 0.00 | 100 | |
| 20260503011020 | 35 | 68 | 0.0 | 0.0 | 0.00 | 0.00 | 0.00 | 100 | |
| 20260503010520 | 35 | 68 | 0.0 | 0.0 | 0.00 | 0.00 | 0.00 | 100 | |
| 20260503010020 | 35 | 68 | 0.0 | 0.0 | 0.00 | 0.00 | 0.00 | 100 | |
| 20260503005520 | 35 | 68 | 0.0 | 0.0 | 0.00 | 0.00 | 0.00 | 100 | |
| 20260503005020 | 35 | 68 | 0.0 | 0.0 | 0.00 | 0.00 | 0.00 | 100 | |
| 20260503004520 | 35 | 68 | 0.0 | 0.0 | 0.00 | 0.00 | 0.00 | 100 | |
| 20260503004020 | 35 | 68 | 0.0 | 0.0 | 0.00 | 0.00 | 0.00 | 100 | |
| 20260503003520 | 35 | 68 | 0.0 | 0.0 | 0.00 | 0.00 | 0.00 | 100 | |
| 20260503003020 | 35 | 68 | 0.0 | 0.0 | 0.00 | 0.00 | 0.00 | 100 | |
| 20260503002520 | 35 | 68 | 0.0 | 0.0 | 0.00 | 0.00 | 0.00 | 100 | |
| 20260503002020 | 35 | 68 | 0.0 | 0.0 | 0.00 | 0.00 | 0.00 | 100 | |
| 20260503001520 | 35 | 68 | 0.0 | 0.0 | 0.00 | 0.00 | 0.00 | 100 | |
| 20260503001020 | 35 | 68 | 0.0 | 0.0 | 0.00 | 0.00 | 0.00 | 100 | |
| 20260503000520 | 35 | 68 | 0.0 | 0.0 | 0.00 | 0.00 | 0.00 | 100 | |
| 20260503000020 | 35 | 68 | 0.0 | 0.0 | 0.00 | 0.00 | 0.00 | 100 | |
| 20260502235520 | 36 | 68 | 0.0 | 0.0 | 0.00 | 0.00 | 0.00 | 100 | |
| 20260502235020 | 36 | 68 | 0.0 | 0.0 | 0.00 | 0.00 | 0.00 | 100 | |
| 20260502234520 | 36 | 68 | 0.0 | 0.0 | 0.00 | 0.00 | 0.00 | 100 | |
| 20260502234020 | 36 | 68 | 0.0 | 0.0 | 0.00 | 0.00 | 0.00 | 100 | |
| 20260502233520 | 36 | 68 | 0.0 | 0.0 | 0.00 | 0.00 | 0.00 | 100 | |
| 20260502233020 | 36 | 68 | 0.0 | 0.0 | 0.00 | 0.00 | 0.00 | 100 | |
| 20260502232520 | 36 | 68 | 0.0 | 0.0 | 0.00 | 0.00 | 0.00 | 100 | |
| 20260502232020 | 36 | 68 | 0.0 | 0.0 | 0.00 | 0.00 | 0.00 | 100 | |
| 20260502231520 | 36 | 68 | 0.0 | 0.0 | 0.00 | 0.00 | 0.00 | 100 | |
| 20260502231020 | 37 | 68 | 0.0 | 0.0 | 0.00 | 0.00 | 0.00 | 100 | |
| 20260502230520 | 37 | 68 | 0.0 | 0.0 | 0.00 | 0.00 | 0.00 | 100 | |
| 20260502230020 | 37 | 68 | 0.0 | 0.0 | 0.00 | 0.00 | 0.00 | 100 | |
| 20260502225521 | 37 | 68 | 0.0 | 0.0 | 0.00 | 0.00 | 0.00 | 100 | |
| 20260502225020 | 37 | 68 | 0.0 | 0.0 | 0.00 | 0.00 | 0.00 | 100 | |
| 20260502224520 | 37 | 68 | 0.0 | 0.0 | 0.00 | 0.00 | 0.00 | 100 | |
| 20260502224021 | 37 | 68 | 0.0 | 0.0 | 0.00 | 0.00 | 0.00 | 100 | |
| 20260502223520 | 37 | 68 | 0.0 | 0.0 | 0.00 | 0.00 | 0.00 | 100 | |
| 20260502223021 | 37 | 68 | 0.0 | 0.0 | 0.00 | 0.00 | 0.00 | 100 | |
| 20260502222521 | 38 | 68 | 0.0 | 0.0 | 0.00 | 0.00 | 0.00 | 100 | |
| 20260502222021 | 37 | 68 | 0.0 | 0.0 | 0.00 | 0.00 | 0.00 | 100 | |
| 20260502221521 | 38 | 68 | 0.0 | 0.0 | 0.00 | 0.00 | 0.00 | 100 | |
| 20260502221021 | 38 | 68 | 0.0 | 0.0 | 0.00 | 0.00 | 0.00 | 100 | |
| 20260502220521 | 38 | 68 | 0.0 | 0.0 | 0.00 | 0.00 | 0.00 | 100 | |
| 20260502220021 | 38 | 68 | 0.0 | 0.0 | 0.00 | 0.00 | 0.00 | 100 | |
| 20260502215521 | 38 | 68 | 0.0 | 0.0 | 0.00 | 0.00 | 0.00 | 100 | |
| 20260502215021 | 39 | 68 | 0.0 | 0.0 | 0.00 | 0.00 | 0.00 | 100 | |
| 20260502214521 | 39 | 68 | 0.0 | 0.0 | 0.00 | 0.00 | 0.00 | 100 |